Time,TemperatureF,DewpointF,PressureIn,WindDirection,WindDirectionDegrees,WindSpeedMPH,WindSpeedGustMPH,Humidity,HourlyPrecipIn,Conditions,Clouds,dailyrainin,SoftwareType,DateUTC
2013-04-12 00:03:00,58.0,57.0,29.48,SSE,158,0.0,4.0,95,0.00,,,0.96,,2013-04-12 04:03:00,
2013-04-12 00:13:00,58.0,57.0,29.48,SSE,158,0.0,4.0,95,0.00,,,0.96,,2013-04-12 04:13:00,
2013-04-12 00:23:00,58.0,56.0,29.49,SSE,158,0.0,3.0,94,0.00,,,0.96,,2013-04-12 04:23:00,
2013-04-12 00:33:00,58.0,56.0,29.48,SSE,157,0.0,4.0,94,0.00,,,0.96,,2013-04-12 04:33:00,
2013-04-12 00:43:00,58.0,56.0,29.48,SSE,157,0.0,4.0,94,0.00,,,0.96,,2013-04-12 04:43:00,
2013-04-12 00:52:00,58.0,56.0,29.48,SSE,158,3.0,6.0,94,0.00,,,0.96,,2013-04-12 04:52:00,
2013-04-12 01:03:00,58.0,56.0,29.48,SSE,159,0.0,4.0,94,0.01,,,0.97,,2013-04-12 05:03:00,
2013-04-12 01:12:00,58.0,56.0,29.48,SSE,159,0.0,4.0,94,0.01,,,0.97,,2013-04-12 05:12:00,
2013-04-12 01:23:00,58.0,56.0,29.48,SSE,159,1.0,5.0,94,0.02,,,0.98,,2013-04-12 05:23:00,
2013-04-12 01:32:00,58.0,56.0,29.46,South,172,3.0,8.0,94,0.04,,,1.00,,2013-04-12 05:32:00,
2013-04-12 01:42:00,58.0,56.0,29.46,South,172,3.0,8.0,94,0.04,,,1.00,,2013-04-12 05:42:00,
2013-04-12 01:52:00,58.0,56.0,29.48,South,174,2.0,7.0,94,0.05,,,1.01,,2013-04-12 05:52:00,
2013-04-12 02:02:00,57.0,55.0,29.50,West,263,8.0,14.0,94,0.11,,,1.08,,2013-04-12 06:02:00,
2013-04-12 02:12:00,57.0,55.0,29.50,West,263,8.0,14.0,94,0.11,,,1.08,,2013-04-12 06:12:00,
2013-04-12 02:22:00,55.0,53.0,29.49,West,276,9.0,15.0,94,0.12,,,1.10,,2013-04-12 06:22:00,
2013-04-12 02:32:00,54.0,52.0,29.50,West,276,8.0,17.0,93,0.11,,,1.11,,2013-04-12 06:32:00,
2013-04-12 02:42:00,54.0,52.0,29.50,West,276,8.0,17.0,93,0.11,,,1.11,,2013-04-12 06:42:00,
2013-04-12 02:52:00,53.0,51.0,29.50,West,269,6.0,18.0,93,0.10,,,1.11,,2013-04-12 06:52:00,
2013-04-12 03:02:00,53.0,51.0,29.50,West,271,2.0,10.0,93,0.03,,,1.11,,2013-04-12 07:02:00,
2013-04-12 03:12:00,53.0,51.0,29.50,West,271,2.0,10.0,93,0.03,,,1.11,,2013-04-12 07:12:00,
2013-04-12 03:22:00,52.0,50.0,29.50,West,260,5.0,11.0,93,0.02,,,1.12,,2013-04-12 07:22:00,
2013-04-12 03:32:00,52.0,50.0,29.51,West,261,4.0,11.0,93,0.02,,,1.13,,2013-04-12 07:32:00,
2013-04-12 03:42:00,52.0,50.0,29.51,West,261,4.0,11.0,93,0.02,,,1.13,,2013-04-12 07:42:00,
2013-04-12 03:52:00,52.0,50.0,29.50,West,268,4.0,6.0,93,0.02,,,1.13,,2013-04-12 07:52:00,
2013-04-12 04:03:00,52.0,50.0,29.50,WNW,292,5.0,9.0,94,0.03,,,1.14,,2013-04-12 08:03:00,
2013-04-12 04:12:00,52.0,50.0,29.50,WNW,292,5.0,9.0,94,0.03,,,1.14,,2013-04-12 08:12:00,
2013-04-12 04:22:00,51.0,49.0,29.51,West,280,6.0,15.0,93,0.02,,,1.14,,2013-04-12 08:22:00,
2013-04-12 04:32:00,49.0,47.0,29.54,West,260,7.0,14.0,93,0.01,,,1.14,,2013-04-12 08:32:00,
2013-04-12 04:42:00,49.0,47.0,29.54,West,260,7.0,14.0,93,0.01,,,1.14,,2013-04-12 08:42:00,
2013-04-12 04:52:00,49.0,47.0,29.54,West,259,6.0,15.0,93,0.01,,,1.14,,2013-04-12 08:52:00,
2013-04-12 05:02:00,47.0,45.0,29.55,West,273,4.0,14.0,93,0.00,,,1.14,,2013-04-12 09:02:00,
2013-04-12 05:12:00,47.0,45.0,29.55,West,273,4.0,14.0,93,0.00,,,1.14,,2013-04-12 09:12:00,
2013-04-12 05:22:00,47.0,45.0,29.56,West,279,7.0,14.0,92,0.00,,,1.14,,2013-04-12 09:22:00,
2013-04-12 05:33:00,46.0,44.0,29.57,West,278,8.0,17.0,92,0.00,,,1.14,,2013-04-12 09:33:00,
2013-04-12 05:43:00,46.0,44.0,29.57,West,278,8.0,17.0,92,0.00,,,1.14,,2013-04-12 09:43:00,
2013-04-12 05:52:00,45.0,43.0,29.58,West,279,6.0,16.0,91,0.00,,,1.14,,2013-04-12 09:52:00,
2013-04-12 06:03:00,45.0,43.0,29.59,WNW,282,2.0,15.0,91,0.00,,,1.14,,2013-04-12 10:03:00,
2013-04-12 06:13:00,44.0,42.0,29.59,West,264,7.0,11.0,91,0.00,,,1.14,,2013-04-12 10:13:00,
2013-04-12 06:23:00,44.0,42.0,29.59,West,264,7.0,11.0,91,0.00,,,1.14,,2013-04-12 10:23:00,
2013-04-12 06:34:00,44.0,42.0,29.61,WSW,252,1.0,11.0,91,0.01,,,1.15,,2013-04-12 10:34:00,
2013-04-12 06:42:00,44.0,42.0,29.61,WSW,252,1.0,11.0,91,0.01,,,1.15,,2013-04-12 10:42:00,
2013-04-12 06:52:00,44.0,42.0,29.62,West,268,4.0,11.0,91,0.01,,,1.15,,2013-04-12 10:52:00,
2013-04-12 07:03:00,43.0,41.0,29.62,West,276,3.0,13.0,91,0.01,,,1.15,,2013-04-12 11:03:00,
2013-04-12 07:13:00,43.0,41.0,29.62,West,276,3.0,13.0,91,0.01,,,1.15,,2013-04-12 11:13:00,
2013-04-12 07:22:00,42.0,39.0,29.64,West,263,5.0,14.0,89,0.01,,,1.15,,2013-04-12 11:22:00,
2013-04-12 07:32:00,42.0,39.0,29.65,WSW,247,4.0,15.0,88,0.00,,,1.09,,2013-04-12 11:32:00,
2013-04-12 07:42:00,42.0,39.0,29.65,WSW,247,4.0,15.0,88,0.00,,,1.09,,2013-04-12 11:42:00,
2013-04-12 07:52:00,41.0,37.0,29.65,WSW,251,6.0,13.0,87,0.00,,,1.09,,2013-04-12 11:52:00,
2013-04-12 08:03:00,41.0,37.0,29.66,SW,236,2.0,9.0,86,0.00,,,1.09,,2013-04-12 12:03:00,
2013-04-12 08:13:00,41.0,37.0,29.66,SW,236,2.0,9.0,86,0.00,,,1.09,,2013-04-12 12:13:00,
2013-04-12 08:22:00,40.0,36.0,29.66,West,269,1.0,10.0,85,0.00,,,1.09,,2013-04-12 12:22:00,
2013-04-12 08:33:00,40.0,36.0,29.68,West,267,4.0,9.0,85,0.00,,,1.00,,2013-04-12 12:33:00,
2013-04-12 08:42:00,40.0,36.0,29.68,West,267,4.0,9.0,85,0.00,,,1.00,,2013-04-12 12:42:00,
2013-04-12 08:52:00,40.0,36.0,29.68,WSW,258,2.0,10.0,85,0.00,,,1.00,,2013-04-12 12:52:00,
2013-04-12 09:03:00,40.0,36.0,29.68,WSW,249,4.0,8.0,84,0.00,,,1.00,,2013-04-12 13:03:00,
2013-04-12 09:12:00,40.0,36.0,29.68,WSW,249,4.0,8.0,84,0.00,,,1.00,,2013-04-12 13:12:00,
2013-04-12 09:22:00,40.0,35.0,29.69,WSW,258,5.0,12.0,83,0.00,,,1.00,,2013-04-12 13:22:00,
2013-04-12 09:32:00,41.0,36.0,29.70,WSW,251,2.0,10.0,83,0.00,,,0.80,,2013-04-12 13:32:00,
2013-04-12 09:42:00,41.0,36.0,29.70,WSW,251,2.0,10.0,83,0.00,,,0.80,,2013-04-12 13:42:00,
2013-04-12 09:52:00,41.0,36.0,29.70,South,173,2.0,11.0,83,0.00,,,0.80,,2013-04-12 13:52:00,
2013-04-12 10:03:00,41.0,36.0,29.70,SSW,200,4.0,8.0,81,0.00,,,0.80,,2013-04-12 14:03:00,
2013-04-12 10:13:00,41.0,36.0,29.70,SSW,200,4.0,8.0,81,0.00,,,0.80,,2013-04-12 14:13:00,
2013-04-12 10:23:00,41.0,36.0,29.70,SW,217,2.0,9.0,81,0.00,,,0.80,,2013-04-12 14:23:00,
2013-04-12 10:33:00,41.0,35.0,29.71,SW,231,4.0,12.0,79,0.00,,,0.74,,2013-04-12 14:33:00,
2013-04-12 10:42:00,41.0,35.0,29.71,SW,231,4.0,12.0,79,0.00,,,0.74,,2013-04-12 14:42:00,
2013-04-12 10:53:00,42.0,36.0,29.71,WSW,251,3.0,15.0,79,0.00,,,0.74,,2013-04-12 14:53:00,
2013-04-12 11:03:00,43.0,35.0,29.72,WSW,240,5.0,13.0,73,0.00,,,0.74,,2013-04-12 15:03:00,
2013-04-12 11:12:00,43.0,35.0,29.72,WSW,240,5.0,13.0,73,0.00,,,0.74,,2013-04-12 15:12:00,
2013-04-12 11:22:00,43.0,35.0,29.72,WSW,250,5.0,13.0,72,0.00,,,0.74,,2013-04-12 15:22:00,
2013-04-12 11:33:00,45.0,35.0,29.73,West,266,4.0,12.0,69,0.00,,,0.74,,2013-04-12 15:33:00,
2013-04-12 11:43:00,45.0,35.0,29.73,West,266,4.0,12.0,69,0.00,,,0.74,,2013-04-12 15:43:00,
2013-04-12 11:53:00,46.0,36.0,29.72,WNW,282,4.0,10.0,69,0.00,,,0.74,,2013-04-12 15:53:00,
2013-04-12 12:04:00,47.0,37.0,29.72,SSW,200,4.0,16.0,68,0.00,,,0.74,,2013-04-12 16:04:00,
2013-04-12 12:13:00,47.0,37.0,29.72,SSW,200,4.0,16.0,68,0.00,,,0.74,,2013-04-12 16:13:00,
2013-04-12 12:23:00,47.0,36.0,29.72,WSW,253,8.0,20.0,66,0.00,,,0.74,,2013-04-12 16:23:00,
2013-04-12 12:33:00,48.0,38.0,29.72,SSW,203,5.0,10.0,67,0.00,,,0.74,,2013-04-12 16:33:00,
2013-04-12 12:42:00,48.0,38.0,29.72,SSW,203,5.0,10.0,67,0.00,,,0.74,,2013-04-12 16:42:00,
2013-04-12 12:52:00,47.0,36.0,29.72,WSW,257,4.0,13.0,66,0.00,,,0.74,,2013-04-12 16:52:00,
2013-04-12 13:04:00,48.0,38.0,29.72,South,182,4.0,11.0,68,0.00,,,0.74,,2013-04-12 17:04:00,
2013-04-12 13:12:00,48.0,38.0,29.72,South,182,4.0,11.0,68,0.00,,,0.74,,2013-04-12 17:12:00,
2013-04-12 13:23:00,49.0,39.0,29.72,SW,222,3.0,9.0,68,0.00,,,0.74,,2013-04-12 17:23:00,
2013-04-12 13:33:00,50.0,39.0,29.71,SSW,212,4.0,12.0,66,0.00,,,0.74,,2013-04-12 17:33:00,
2013-04-12 13:59:00,50.0,39.0,29.72,South,176,2.0,11.0,66,0.00,,,0.74,,2013-04-12 17:59:00,
2013-04-12 14:10:00,50.0,39.0,29.72,SSW,199,6.0,12.0,65,0.00,,,0.74,,2013-04-12 18:10:00,
2013-04-12 14:20:00,50.0,39.0,29.72,SSW,199,6.0,12.0,65,0.00,,,0.74,,2013-04-12 18:20:00,
2013-04-12 15:26:00,50.0,39.0,29.72,WSW,252,6.0,11.0,65,0.00,,,0.73,,2013-04-12 19:26:00,
2013-04-12 15:27:00,50.0,39.0,29.72,WSW,252,6.0,11.0,65,0.00,,,0.73,,2013-04-12 19:27:00,
2013-04-12 15:33:00,50.0,39.0,29.72,South,179,5.0,14.0,65,0.00,,,0.73,,2013-04-12 19:33:00,
2013-04-12 15:43:00,50.0,39.0,29.72,South,179,5.0,14.0,65,0.00,,,0.73,,2013-04-12 19:43:00,
2013-04-12 15:52:00,50.0,39.0,29.73,South,180,4.0,16.0,65,0.00,,,0.73,,2013-04-12 19:52:00,
2013-04-12 16:02:00,50.0,38.0,29.73,West,264,5.0,12.0,63,0.00,,,0.73,,2013-04-12 20:02:00,
2013-04-12 16:12:00,50.0,38.0,29.73,West,264,5.0,12.0,63,0.00,,,0.73,,2013-04-12 20:12:00,
2013-04-12 16:22:00,50.0,38.0,29.73,WSW,242,4.0,12.0,64,0.00,,,0.73,,2013-04-12 20:22:00,
2013-04-12 16:32:00,49.0,38.0,29.75,WSW,254,5.0,15.0,65,0.00,,,0.73,,2013-04-12 20:32:00,
2013-04-12 16:42:00,49.0,38.0,29.75,WSW,254,5.0,15.0,65,0.00,,,0.73,,2013-04-12 20:42:00,
2013-04-12 16:52:00,49.0,38.0,29.75,West,270,3.0,14.0,65,0.00,,,0.73,,2013-04-12 20:52:00,
2013-04-12 17:02:00,49.0,38.0,29.75,West,275,4.0,12.0,66,0.00,,,0.73,,2013-04-12 21:02:00,
2013-04-12 17:12:00,49.0,38.0,29.75,West,275,4.0,12.0,66,0.00,,,0.73,,2013-04-12 21:12:00,
2013-04-12 17:22:00,49.0,39.0,29.75,West,275,6.0,11.0,67,0.00,,,0.73,,2013-04-12 21:22:00,
2013-04-12 17:33:00,48.0,38.0,29.76,West,271,3.0,8.0,67,-99.99,,,-99.99,,2013-04-12 21:33:00,
2013-04-12 17:43:00,48.0,38.0,29.76,West,271,3.0,8.0,67,-99.99,,,-99.99,,2013-04-12 21:43:00,
2013-04-12 17:52:00,48.0,38.0,29.77,West,270,5.0,10.0,67,-99.99,,,-99.99,,2013-04-12 21:52:00,
2013-04-12 18:02:00,48.0,38.0,29.78,WSW,245,4.0,11.0,67,-99.99,,,-99.99,,2013-04-12 22:02:00,
2013-04-12 18:13:00,48.0,38.0,29.78,WSW,245,4.0,11.0,67,-99.99,,,-99.99,,2013-04-12 22:13:00,
2013-04-12 18:22:00,48.0,38.0,29.78,West,276,6.0,11.0,67,-99.99,,,-99.99,,2013-04-12 22:22:00,
2013-04-12 18:33:00,47.0,37.0,29.79,West,278,3.0,8.0,68,0.00,,,-99.99,,2013-04-12 22:33:00,
2013-04-12 18:42:00,47.0,37.0,29.79,West,278,3.0,8.0,68,0.00,,,-99.99,,2013-04-12 22:42:00,
2013-04-12 18:52:00,47.0,37.0,29.79,West,264,4.0,9.0,68,0.00,,,-99.99,,2013-04-12 22:52:00,
2013-04-12 19:04:00,47.0,37.0,29.80,West,277,6.0,12.0,68,0.00,,,-99.99,,2013-04-12 23:04:00,
2013-04-12 19:12:00,47.0,37.0,29.80,WNW,284,3.0,12.0,67,0.00,,,-99.99,,2013-04-12 23:12:00,
2013-04-12 19:22:00,47.0,37.0,29.80,WNW,284,3.0,12.0,67,0.00,,,-99.99,,2013-04-12 23:22:00,
2013-04-12 19:32:00,47.0,37.0,29.80,West,274,4.0,12.0,67,0.00,,,-99.99,,2013-04-12 23:32:00,
2013-04-12 19:42:00,47.0,37.0,29.80,West,274,4.0,12.0,67,0.00,,,-99.99,,2013-04-12 23:42:00,
2013-04-12 19:52:00,47.0,37.0,29.81,West,272,3.0,12.0,67,0.00,,,-99.99,,2013-04-12 23:52:00,
2013-04-12 20:02:00,47.0,37.0,29.82,West,270,5.0,10.0,67,0.00,,,-99.99,,2013-04-13 00:02:00,
2013-04-12 20:12:00,47.0,37.0,29.82,West,270,5.0,10.0,67,0.00,,,-99.99,,2013-04-13 00:12:00,
2013-04-12 20:22:00,47.0,37.0,29.81,West,274,3.0,9.0,67,0.00,,,-99.99,,2013-04-13 00:22:00,
2013-04-12 20:32:00,46.0,36.0,29.82,West,261,3.0,6.0,67,0.00,,,-99.99,,2013-04-13 00:32:00,
2013-04-12 20:42:00,46.0,36.0,29.82,West,261,3.0,6.0,67,0.00,,,-99.99,,2013-04-13 00:42:00,
2013-04-12 20:52:00,46.0,36.0,29.83,West,262,3.0,10.0,67,0.00,,,-99.99,,2013-04-13 00:52:00,
2013-04-12 21:02:00,45.0,35.0,29.83,West,266,2.0,7.0,67,0.00,,,-99.99,,2013-04-13 01:02:00,
2013-04-12 21:13:00,45.0,35.0,29.83,West,266,2.0,7.0,67,0.00,,,-99.99,,2013-04-13 01:13:00,
2013-04-12 21:22:00,45.0,34.0,29.84,West,270,2.0,10.0,66,0.00,,,-99.99,,2013-04-13 01:22:00,
2013-04-12 21:33:00,45.0,34.0,29.84,West,262,2.0,10.0,65,0.00,,,-99.99,,2013-04-13 01:33:00,
2013-04-12 21:42:00,45.0,34.0,29.84,West,262,2.0,10.0,65,0.00,,,-99.99,,2013-04-13 01:42:00,
2013-04-12 21:52:00,45.0,34.0,29.85,West,263,2.0,8.0,65,0.00,,,-99.99,,2013-04-13 01:52:00,
2013-04-12 22:02:00,45.0,34.0,29.85,West,264,1.0,6.0,66,0.00,,,-99.99,,2013-04-13 02:02:00,
2013-04-12 22:12:00,45.0,34.0,29.85,West,264,1.0,6.0,66,0.00,,,-99.99,,2013-04-13 02:12:00,
2013-04-12 22:23:00,44.0,34.0,29.85,West,265,2.0,6.0,67,0.00,,,-99.99,,2013-04-13 02:23:00,
2013-04-12 22:33:00,43.0,33.0,29.85,West,265,2.0,5.0,68,0.00,,,-99.99,,2013-04-13 02:33:00,
2013-04-12 22:42:00,43.0,33.0,29.85,West,265,2.0,5.0,68,0.00,,,-99.99,,2013-04-13 02:42:00,
2013-04-12 22:52:00,43.0,33.0,29.86,West,265,2.0,4.0,68,0.00,,,-99.99,,2013-04-13 02:52:00,
2013-04-12 23:03:00,42.0,33.0,29.87,West,265,0.0,3.0,69,0.00,,,-99.99,,2013-04-13 03:03:00,
2013-04-12 23:12:00,42.0,33.0,29.87,West,265,0.0,3.0,69,0.00,,,-99.99,,2013-04-13 03:12:00,
2013-04-12 23:23:00,42.0,33.0,29.86,West,265,3.0,5.0,69,0.00,,,-99.99,,2013-04-13 03:23:00,
2013-04-12 23:33:00,42.0,33.0,29.87,West,265,0.0,3.0,69,0.00,,,-99.99,,2013-04-13 03:33:00,
2013-04-12 23:42:00,42.0,33.0,29.87,West,265,0.0,3.0,69,0.00,,,-99.99,,2013-04-13 03:42:00,
2013-04-12 23:53:00,41.0,32.0,29.87,West,265,0.0,3.0,70,0.00,,,-99.99,,2013-04-13 03:53:00,